Location: Korczew
(51.3586°N, 19.4491°E)
Time: 23:01:00
(UTC+00:00)

Cosmos 2237 Rocket - Pass Details

Date: 19 May 2025
Orbit: 834 x 849 km, 71.0° (Epoch: 16 June)

Event Time Altitude Azimuth Distance (km) Brightness Sun altitude
Rises 23:41:20 0° 331° (NNW) 3,400 6.1 -17.3°
Reaches altitude 10° 23:43:53 10° 337° (NNW) 2,464 5.4 -17.2°
Maximum altitude 23:49:20 47° 51° (NE) 1,110 3.2 -17.0°
Drops below altitude 10° 23:54:46 10° 125° (SE) 2,461 4.5 -16.7°
Sets 23:57:19 0° 131° (SE) 3,394 5.1 -16.6°
